Tracking 17154 objects as of 2-August-2015
HD Live streaming from Space Station

NAVSTAR 37 (USA 117)

Track NAVSTAR 37 (USA 117) now!
NAVSTAR 37 (USA 117) is classified as:


NORAD ID: 23833
Int'l Code: 1996-019A
Perigee: 20,708.1 km
Apogee: 20,746.9 km
Inclination: 54.1 °
Period: 739.9 minutes
Semi major axis: 27098 km
RCS: 4.1981 m2 (large)
Launch date: March 28, 1996
Source: United States (US)
PRN:
Your satellite tracking list
Your tracking list is empty





NASA's NSSDC Master Catalog

Two Line Element Set (TLE):
1 23833U 96019A   15213.41710265 -.00000026  00000-0  00000+0 0  9990
2 23833 054.0528 059.1675 0007162 276.9314 265.3953 01.94618562141580

Source of the keplerian elements: AFSPC

N2YO: 274